OSCAR 14 (UOSAT 3)

Satellite information

Favourite Embed

Satellite Type and Status

PAYLOADIN ORBIT

Key statistics

Satellite OSCAR 14 (UOSAT 3) at a glance.

Uptime

13054

Days in orbit

Revolutions

≈ 14.3

Per day

Orbit

SSO

Sun Synchronous Orbit

Inclination

98.8

Latest

Satellite identification and parameters

Extended collection of information and parameters for OSCAR 14 (UOSAT 3).

Object identification

Identified? True

Debris? False

Object name: OSCAR 14 (UOSAT 3)

International designator: 1990-005B

Object number (NORAD): 20437

Object ID (CCSDS): 20437

Country: UNITED KINGDOM (UK)

Current information (Y/N): Y

RCS size: MEDIUM

Orbital parameters

Period: 100.476 minutes

Inclination: 98.8404 deg

SMA: 7159.264 km

Apoapsis: 787.849 km

Periapsis: 774.41 km

RAAN: 331.7489 deg

Eccentricy: 0.00093859

Argument of periapsis: 249.6792 deg

Mean anomaly: 209.6163 deg

Mean motion: 14.33178078 rev/day

Mean motion (dot): 0.00000209 rev/day2

B* drag term: 0.000093118166 1/REarth

Two-line elements (TLE)

Creation date: Oct. 19, 2025, 2:20 a.m.

Reference frame: TEME

Reference center: EARTH

Epoch: Oct. 18, 2025, 10:36 p.m. UTC

TLE line 0: 0 OSCAR 14 (UOSAT 3)

TLE line 1: 1 20437U 90005B 25291.94229020 .00000209 00000-0 93118-4 0 9994

TLE line 2: 2 20437 98.8404 331.7489 0009386 249.6792 209.6163 14.33178078867034

Live tracking on map

Real-time ground track for satellite OSCAR 14 (UOSAT 3).

In-orbit conjunctions

There are no conjunctions computed for OSCAR 14 (UOSAT 3), at the moment. Check back to stay up to date, as we update our databases every day.

Go to all conjunctions

Associated space launch

French Earth observation satellite

OSCAR 14 (UOSAT 3) was lifted into orbit during the mission ‘Ariane 40 | SPOT 2’, on board a Ariane 40 space rocket.

The launch took place on Jan. 22, 1990, 1:35 a.m. from Ariane Launch Area 2.

For more information about the launch, click the button.

Launch to space Ariane 40 | SPOT 2
Ariane 40 | SPOT 2

Agency: N/A

Status: Launch Successful

Launch date: Jan. 22, 1990, 1:35 a.m. UTC

Rocket: Ariane 40

Launch pad: Ariane Launch Area 2

Location: Guiana Space Centre, French Guiana

...

Latest news about this satellite

There are no fresh news available about this satellite. Check back as we update our databases every day.


Newsletter sign-up

Weekly statistics, charts and insights to help you stay on top of the space industry.